map of PVG home
PVG - Airport
Location
City:  Shanghai, Shanghai, China
Name:Pudong International Airport
ICAO:ZSPD
IATA:PVG

Details
Type:Airport (Aerodrome, Airfield)
Use:Public/Civil, International (customs port of entry)
Latitude:3109'N (31.145)
Longitude:12148'E (121.793)
Elevation:13 ft (4 m)
Variation:6.01W (WMM2015 magnetic declination)
-0.08 annual change
Runways:4
Longest:13123 × 197 ft (4000 × 60 m), paved

Time
Time Zone:UTC+8
Local Time:

Weather
METAR:ZSPD 261700Z 00000MPS CAVOK 14/10 Q1015 NOSIG
TAF:ZSPD 261516Z 2618/2718 18003MPS 5000 BR SCT020 TX26/2706Z TN11/2621Z
BECMG 2700/2701 36004MPS

Related Locations
Nearby:
Farthest:COC: 12433 mi / 20008 km
Concordia (San Antonio de Padua de la Concordia) [Comodoro Pierrestegui Airport], E, AR

Find:

   beyond  
but within

Other Information
Maps:
NOTAMs:
Links:
Sources:

  
flag of China   

Sectional Chart

Flight Planning
at skyvector.com

Satellite Image

Google Maps Satellite view

 

Copyright © 2004-2018 Karl L. Swartz. All rights reserved.
The Great Circle Mapper name and logo are trademarks of the Great Circle Mapper.
All other trademarks mentioned herein belong to their respective owners.
Please see credits for attibutions and further copyright information.

  Follow gcmap on Facebook Follow gcmap on Twitter Follow gcmap on Google+ GCmap on LinkedIn

hCard Microformat

Geo Microformat